Dansville, NY

3:14 PM EDT on September 22, 2019 (GMT -0400)
Dansville Municipal

Weather History for KDSV - August, 2019

Change the Weather History Date:

Friday, August 23, 2019

  Actual Average Record
Temperature  
Mean Temperature 64 °F -  
Max Temperature 73 °F 80 °F 92 °F (1949)
Min Temperature 54 °F 53 °F 43 °F (1952)
Degree Days  
Heating Degree Days 1    
Growing Degree Days 14 (Base 50)    
Moisture  
Dew Point 54 °F    
Average Humidity 74    
Maximum Humidity 97    
Minimum Humidity 47    
Precipitation  
Precipitation 0.00 in - - ()
Sea Level Pressure  
Sea Level Pressure 30.12 in    
Wind  
Wind Speed 5 mph ()    
Max Wind Speed 12 mph    
Max Gust Speed -    
Visibility 10.0 miles    
Events      
Averages and records for this station are not official NWS values.
T = Trace of Precipitation, MM = Missing Value Source: Averaged Metar Reports

Daily Weather History Graph

Daily Weather History Graph

Search for Another Location

Airport or City:

Astronomy

Aug. 23, 2019 Rise Set
Actual Time 6:25 AM EDT 8:00 PM EDT
Civil Twilight 5:56 AM EDT 8:29 PM EDT
Nautical Twilight 5:20 AM EDT 9:05 PM EDT
Astronomical Twilight 4:41 AM EDT 9:43 PM EDT
Moon No Moon Rise 2:10 PM EDT (8/23)
Length of Visible Light 14h 33m
Length of Day
13h 34m
Waning Gibbous, 50% of the Moon is Illuminated
Aug 23
Waning Gibbous
Aug 30
New
Sep 5
First Quarter
Sep 14
Full
Sep 21
Last Quarter

Hourly Weather History & Observations

Time (EDT) Temp. Dew Point Humidity Pressure Visibility Wind Dir Wind Speed Gust Speed Precip Events Conditions
12:54 AM 60.1 °F 57.0 °F 90% 30.05 in 10.0 mi SE 6.9 mph - N/A   Overcast
1:54 AM 60.1 °F 57.0 °F 90% 30.06 in 10.0 mi SE 5.8 mph - N/A   Overcast
2:54 AM 59.0 °F 55.9 °F 90% 30.05 in 10.0 mi SE 4.6 mph - N/A   Mostly Cloudy
3:54 AM 57.9 °F 55.9 °F 93% 30.06 in 10.0 mi Calm Calm - N/A   Mostly Cloudy
4:54 AM 55.9 °F 55.0 °F 97% 30.08 in 10.0 mi Calm Calm - N/A   Clear
5:54 AM 55.0 °F 54.0 °F 96% 30.09 in 10.0 mi Calm Calm - N/A   Clear
6:54 AM 55.0 °F 53.1 °F 93% 30.10 in 10.0 mi South 4.6 mph - N/A   Clear
7:54 AM 57.0 °F 54.0 °F 89% 30.12 in 10.0 mi SE 3.5 mph - N/A   Clear
8:54 AM 61.0 °F 55.9 °F 83% 30.12 in 10.0 mi Calm Calm - N/A   Clear
9:54 AM 64.9 °F 57.0 °F 75% 30.13 in 10.0 mi North 8.1 mph - N/A   Clear
10:54 AM 68.0 °F 57.9 °F 70% 30.14 in 10.0 mi NW 9.2 mph - N/A   Clear
11:54 AM 71.1 °F 55.0 °F 57% 30.13 in 10.0 mi NW 9.2 mph - N/A   Scattered Clouds
12:54 PM 70.0 °F 54.0 °F 57% 30.13 in 10.0 mi NW 10.4 mph - N/A   Mostly Cloudy
1:54 PM 73.0 °F 55.0 °F 53% 30.13 in 10.0 mi NW 11.5 mph - N/A   Overcast
2:54 PM 73.0 °F 53.1 °F 49% 30.12 in 10.0 mi North 11.5 mph - N/A   Mostly Cloudy
3:54 PM 73.0 °F 52.0 °F 48% 30.12 in 10.0 mi NNW 11.5 mph - N/A   Overcast
4:54 PM 70.0 °F 52.0 °F 53% 30.13 in 10.0 mi NNW 6.9 mph - N/A   Overcast
5:54 PM 71.1 °F 50.0 °F 47% 30.14 in 10.0 mi North 10.4 mph - N/A   Partly Cloudy
6:54 PM 68.0 °F 50.0 °F 52% 30.14 in 10.0 mi NNW 5.8 mph - N/A   Mostly Cloudy
7:54 PM 64.9 °F 52.0 °F 63% 30.16 in 10.0 mi NW 3.5 mph - N/A   Partly Cloudy
8:54 PM 61.0 °F 53.1 °F 75% 30.18 in 10.0 mi WNW 3.5 mph - N/A   Clear
9:54 PM 57.0 °F 53.1 °F 87% 30.19 in 10.0 mi Calm Calm - N/A   Clear
10:54 PM 55.0 °F 52.0 °F 89% 30.20 in 10.0 mi SSE 4.6 mph - N/A   Clear
11:54 PM 54.0 °F 51.1 °F 90% 30.22 in 10.0 mi South 3.5 mph - N/A   Clear